[[{"header":{"parameterUnit":"m.s-1","parameterCategory":1,"la1":30.2991,"la2":30.254,"lo1":-89.0895,"lo2":-89.0444,"dy":0.0017,"dx":0.0017,"nx":28,"ny":28,"refTime":"2025-04-07T21:00:00:Z","depth":0,"parameterNumber":2,"parameterNumberName":"U-component_of_WINDS"},"data":[0,0,0,0,0,0,0,0,0,0,0,0,0,0,0,0,0,0,0,0,0,0,0,0,0,0,0,0,0,0,0,0,0,0,0,0,0,0,0,0,0,0,0,0,0,0,0,0,0,0,0,0,0,0,0,0,0,0,4.7635,4.7636,0,4.7696,4.7696,4.7697,4.7662,4.7661,4.7659,4.7657,4.7717,4.772,4.7723,0,0,0,0,0,0,0,0,0,0,0,0,0,4.7488,4.7491,4.7635,4.7636,4.7636,4.7696,4.7696,4.7697,4.7663,4.766,4.7658,4.7656,4.7716,4.772,4.7724,0,0,0,0,0,0,0,0,0,0,0,0,0,4.7551,4.7492,4.7635,4.7626,4.7626,4.7695,4.7696,4.7697,4.7663,4.766,4.7658,4.7655,4.7715,4.7719,4.7724,4.7804,0,0,4.7739,4.7741,0,0,0,0,0,0,0,0,4.7547,4.7556,4.7627,4.7627,4.7627,4.7669,4.7667,4.7733,4.7664,4.7649,4.7657,4.7654,4.7703,4.7708,4.7725,4.7807,4.781,4.7739,4.7742,4.7744,4.7745,0,0,0,0,0,0,0,4.7543,4.7553,4.7659,4.7628,4.7628,4.7619,4.7625,4.7679,4.7689,4.765,4.7648,4.7655,4.7702,4.7721,4.7727,4.7811,4.7739,4.7743,4.7746,4.7748,4.7963,4.7966,0,0,0,0,0,0,4.7539,4.755,4.7657,4.7661,4.758,4.7624,4.7631,4.7658,4.7689,4.7691,4.7658,4.7654,4.7714,4.7721,4.7728,4.7826,4.7744,4.7748,4.7751,4.7961,4.7964,4.7967,0,0,0,0,0,0,4.7536,4.7549,4.7654,4.7605,4.7617,4.7629,4.766,4.766,4.7679,4.7694,4.7696,4.7675,4.7712,4.7722,4.7786,4.7827,4.7751,4.7755,4.7957,4.7962,4.7966,4.802,0,0,0,0,0,0,4.7532,4.7548,4.7579,4.7606,4.762,4.7712,4.7662,4.7663,4.7687,4.7683,4.7711,4.7713,4.7711,4.778,4.7791,4.7832,4.7759,4.7953,4.7959,4.7964,4.8015,4.8026,4.8035,0,0,0,0,0,4.7527,4.7591,4.7581,4.7594,4.7659,4.7714,4.7722,4.7719,4.7691,4.7722,4.7732,4.7712,4.7821,4.7786,4.7799,4.7842,4.7951,4.7958,4.7964,4.801,4.8023,4.8035,0,0,0,0,0,0,4.7567,4.7594,4.7583,4.7657,4.7684,4.7708,4.7747,4.7734,4.7768,4.7762,4.7757,4.7763,4.7831,4.7843,4.7804,4.7923,4.7881,4.7891,4.7912,4.7925,4.7935,4.7931,4.7763,0,0,0,0,0,4.7585,4.7628,4.7649,4.7712,4.7727,4.7735,4.7759,4.7755,4.7781,4.7792,4.7807,4.7833,4.7874,4.79,4.7938,4.8017,4.8022,4.8053,4.8063,4.8071,4.8079,4.8123,4.8137,4.7988,4.7988,4.7988,0,0,4.7621,4.7641,4.7668,4.7721,4.7741,4.7786,4.7744,4.7793,4.7826,4.7799,4.7861,4.7874,4.7903,4.7975,4.8008,4.7987,4.8122,4.808,4.8086,4.8089,4.8131,4.8145,4.8158,4.7993,4.7992,4.7991,0,0,4.771,4.773,4.7786,4.7808,4.7839,4.7844,4.7858,4.7885,4.7893,4.7955,4.7937,4.7976,4.8045,4.8067,4.8087,4.8188,4.8171,4.8201,4.8254,4.8297,4.8309,4.8319,4.8356,4.8369,4.8209,4.8209,4.8209,0,4.7751,4.7819,4.7816,4.7867,4.7891,4.7871,4.7928,4.7948,4.799,4.8007,4.7984,4.8072,4.809,4.8168,4.8193,4.821,4.8226,4.8197,4.8307,4.8318,4.8327,4.8362,4.8376,4.8212,4.8212,4.8212,4.8211,0,4.7868,4.7915,4.7956,4.7999,4.8028,4.8082,4.8087,4.8117,4.8111,4.8119,4.8184,4.8205,4.8248,4.8266,4.826,4.8344,4.8331,4.8308,4.8266,4.8345,4.8378,4.8391,4.8217,4.8216,4.8215,4.8214,0,0,4.7982,4.8025,4.804,4.806,4.8095,4.8131,4.8184,4.8227,4.8253,4.8283,4.8328,4.8388,4.8368,4.8391,4.8388,4.8425,4.8505,4.8398,4.8398,4.8417,4.86,4.8617,4.8632,4.8495,4.8497,4.8499,4.8598,0,4.8074,4.8168,4.8169,4.8255,4.8299,4.8282,4.8328,4.8354,4.8364,4.8402,4.8412,4.8456,4.8425,4.8439,4.8476,4.8488,4.8542,4.8481,4.8536,4.8538,4.8529,4.8649,4.8667,4.8759,4.861,4.8613,4.8614,0,4.8194,4.823,4.8321,4.8351,4.837,4.8411,4.8452,4.8489,4.8519,4.8523,4.8551,4.8542,4.8596,4.8554,4.8629,4.8588,4.8611,4.862,4.8624,4.8628,4.858,4.8657,4.8788,4.8802,4.8634,4.8632,4.8631,0,4.8269,4.834,4.8405,4.8422,4.8458,4.8489,4.8505,4.8532,4.8559,4.8594,4.8612,4.8652,4.8675,4.8707,4.8709,4.8678,4.8786,4.8743,4.8791,4.8791,4.8813,4.8812,4.895,4.8829,4.8828,4.8828,4.8828,0,4.8372,4.8428,4.8439,4.8479,4.8542,4.8542,4.8605,4.8618,4.8644,4.8686,4.8673,4.8712,4.8714,4.8754,4.8757,4.8819,4.8829,4.8834,4.8834,4.8836,4.8835,4.885,4.8844,4.8832,4.8831,4.883,4.883,0,4.8466,4.8475,4.8544,4.8574,4.8583,4.8628,4.8654,4.8692,4.8701,4.8754,4.8767,4.8781,4.8828,4.8834,4.8889,4.8891,4.8966,4.896,4.8957,4.8956,4.9003,4.8999,4.9155,4.9176,4.9041,4.9043,4.9044,0,4.8531,4.8574,4.8609,4.8637,4.8656,4.87,4.8728,4.8731,4.876,4.8799,4.8832,4.8878,4.8915,4.8992,4.9007,4.9049,4.9043,4.9095,4.9049,4.905,4.9044,4.9042,4.9047,4.9104,4.9105,4.9107,4.9108,0,4.8645,4.8648,4.8689,4.8732,4.8766,4.88,4.8831,4.8855,4.8861,4.8895,4.8944,4.8973,4.903,4.9077,4.9119,4.9135,4.9123,4.9122,4.9136,4.9137,4.9134,4.9137,4.8981,4.9118,4.9117,4.9116,4.9116,4.9115,4.8727,4.8765,4.8797,4.8843,4.8868,4.8898,4.8936,4.8951,4.8992,4.9039,4.9038,4.9092,4.9123,4.9179,4.9198,4.9241,4.9224,4.9243,4.9248,4.9252,4.9257,4.9128,4.9248,4.9248,4.9248,4.9248,4.9247,0,4.8841,4.8861,4.8904,4.8949,4.8986,4.8973,4.9008,4.9039,4.9087,4.9117,4.9155,4.9212,4.9257,4.9277,4.9321,4.9352,4.9347,4.9363,4.9361,4.9365,4.927,4.9254,4.9366,4.9366,4.9366,4.9366,4.9366,4.9366,4.8904,4.8969,4.8977,4.9054,4.9073,4.9127,4.9148,4.9177,4.9201,4.9266,4.9304,4.9317,4.9343,4.939,4.9431,4.9436,4.9453,4.9472,4.9474,4.9384,4.9372,4.936,4.9345,4.9475,4.9475,4.9565,4.9566,4.9567]},{"header":{"parameterUnit":"m.s-1","parameterCategory":1,"la1":30.2991,"la2":30.254,"lo1":-89.0895,"lo2":-89.0444,"dy":0.0017,"dx":0.0017,"nx":28,"ny":28,"refTime":"2025-04-07T21:00:00:Z","depth":0,"parameterNumber":3,"parameterNumberName":"V-component_of_WINDS"},"data":[0,0,0,0,0,0,0,0,0,0,0,0,0,0,0,0,0,0,0,0,0,0,0,0,0,0,0,0,0,0,0,0,0,0,0,0,0,0,0,0,0,0,0,0,0,0,0,0,0,0,0,0,0,0,0,0,0,0,-7.0265,-7.0266,0,-7.0396,-7.0398,-7.0399,-7.0386,-7.0384,-7.0382,-7.038,-7.051,-7.0515,-7.052,0,0,0,0,0,0,0,0,0,0,0,0,0,-7.0,-7.0005,-7.0265,-7.0266,-7.0268,-7.0396,-7.0398,-7.0399,-7.0386,-7.0384,-7.0381,-7.0379,-7.0508,-7.0514,-7.0521,0,0,0,0,0,0,0,0,0,0,0,0,0,-7.0121,-7.0007,-7.0264,-7.0277,-7.028,-7.0395,-7.0398,-7.04,-7.0387,-7.0384,-7.0381,-7.0378,-7.0506,-7.0513,-7.0521,-7.0632,0,0,-7.0546,-7.0549,0,0,0,0,0,0,0,0,-7.0115,-7.0131,-7.0274,-7.0276,-7.0279,-7.0372,-7.0352,-7.0477,-7.0388,-7.0346,-7.038,-7.0376,-7.0466,-7.0477,-7.0508,-7.0638,-7.0643,-7.0547,-7.0551,-7.0555,-7.0557,0,0,0,0,0,0,0,-7.0106,-7.0125,-7.0317,-7.0276,-7.0279,-7.0275,-7.0289,-7.0376,-7.0421,-7.0349,-7.0349,-7.0365,-7.0467,-7.05,-7.0511,-7.0645,-7.0546,-7.0553,-7.0558,-7.0562,-7.0874,-7.0878,0,0,0,0,0,0,-7.0095,-7.0119,-7.0312,-7.032,-7.0188,-7.0283,-7.0298,-7.0345,-7.042,-7.0429,-7.0367,-7.0364,-7.0488,-7.0502,-7.0515,-7.0651,-7.0555,-7.0562,-7.0567,-7.0871,-7.0875,-7.0879,0,0,0,0,0,0,-7.009,-7.0113,-7.0307,-7.022,-7.0244,-7.029,-7.0343,-7.0349,-7.0383,-7.0434,-7.0441,-7.0393,-7.0486,-7.0504,-7.0604,-7.0655,-7.0566,-7.0573,-7.0867,-7.0872,-7.0877,-7.0922,0,0,0,0,0,0,-7.0082,-7.0111,-7.0154,-7.0221,-7.0249,-7.0394,-7.0346,-7.0354,-7.0397,-7.0394,-7.046,-7.0468,-7.0485,-7.0592,-7.0612,-7.0665,-7.058,-7.0862,-7.0869,-7.0875,-7.0916,-7.0928,-7.0939,0,0,0,0,0,-7.0073,-7.016,-7.0156,-7.0179,-7.0304,-7.0397,-7.0413,-7.0432,-7.0401,-7.0445,-7.0478,-7.0466,-7.0647,-7.0602,-7.0624,-7.0681,-7.0859,-7.0867,-7.0875,-7.0911,-7.0926,-7.0938,0,0,0,0,0,0,-7.0095,-7.0169,-7.0165,-7.0277,-7.0331,-7.0395,-7.045,-7.0447,-7.051,-7.0504,-7.0523,-7.0538,-7.0639,-7.067,-7.0619,-7.0792,-7.0749,-7.0761,-7.0769,-7.0783,-7.0794,-7.0784,-7.0586,0,0,0,0,0,-7.0114,-7.0185,-7.0244,-7.0337,-7.0365,-7.0403,-7.0444,-7.0455,-7.0511,-7.0533,-7.0574,-7.0628,-7.0697,-7.0742,-7.0808,-7.0921,-7.0935,-7.0971,-7.0982,-7.0991,-7.1001,-7.1065,-7.1081,-7.0905,-7.0905,-7.0905,0,0,-7.0151,-7.02,-7.0243,-7.0343,-7.0386,-7.0459,-7.0422,-7.05,-7.0554,-7.0544,-7.0642,-7.0674,-7.0735,-7.0843,-7.0892,-7.0871,-7.1054,-7.1001,-7.1007,-7.1013,-7.1075,-7.1091,-7.1106,-7.091,-7.0909,-7.0908,0,0,-7.0257,-7.0302,-7.0384,-7.0429,-7.0497,-7.0522,-7.0542,-7.0607,-7.0628,-7.0727,-7.0722,-7.0786,-7.0904,-7.0949,-7.0987,-7.1113,-7.1105,-7.1134,-7.1192,-7.1254,-7.1268,-7.128,-7.1326,-7.1342,-7.1145,-7.1145,-7.1145,0,-7.0295,-7.0406,-7.0427,-7.0507,-7.0551,-7.0548,-7.0632,-7.0674,-7.0759,-7.0789,-7.0765,-7.0916,-7.0957,-7.1075,-7.1107,-7.1137,-7.1161,-7.1126,-7.1265,-7.1277,-7.1289,-7.1333,-7.135,-7.1148,-7.1148,-7.1147,-7.1147,0,-7.045,-7.0527,-7.0585,-7.067,-7.072,-7.0802,-7.0835,-7.0883,-7.089,-7.0917,-7.1018,-7.1068,-7.1145,-7.1174,-7.118,-7.1295,-7.128,-7.126,-7.1217,-7.1309,-7.135,-7.1367,-7.1152,-7.1151,-7.115,-7.115,0,0,-7.0572,-7.0669,-7.069,-7.073,-7.0805,-7.0864,-7.0945,-7.1023,-7.1065,-7.1124,-7.1193,-7.1294,-7.1277,-7.1321,-7.1332,-7.1386,-7.1485,-7.136,-7.1362,-7.1382,-7.1615,-7.1629,-7.1648,-7.148,-7.1483,-7.1486,-7.161,0,-7.0686,-7.0832,-7.0854,-7.0983,-7.1054,-7.1054,-7.1126,-7.1179,-7.1208,-7.1272,-7.1303,-7.1375,-7.1347,-7.1373,-7.1427,-7.1461,-7.1531,-7.1453,-7.1544,-7.1547,-7.1528,-7.167,-7.1685,-7.1799,-7.1626,-7.1629,-7.1631,0,-7.0838,-7.0904,-7.104,-7.1108,-7.1138,-7.1202,-7.1276,-7.1338,-7.1399,-7.1416,-7.1466,-7.1471,-7.1556,-7.1509,-7.1626,-7.1572,-7.1611,-7.1633,-7.1638,-7.1647,-7.1594,-7.1683,-7.1836,-7.1853,-7.1656,-7.1654,-7.1652,0,-7.0914,-7.1037,-7.1135,-7.1168,-7.1249,-7.1294,-7.133,-7.1388,-7.1434,-7.1498,-7.1528,-7.1601,-7.164,-7.1696,-7.1721,-7.1685,-7.1836,-7.1792,-7.1853,-7.1852,-7.1884,-7.1881,-7.2045,-7.1909,-7.1909,-7.1908,-7.1908,0,-7.1039,-7.1123,-7.117,-7.123,-7.1324,-7.1349,-7.1441,-7.1475,-7.1527,-7.1594,-7.1598,-7.1659,-7.1689,-7.1755,-7.1775,-7.1869,-7.1886,-7.1902,-7.1907,-7.1902,-7.19,-7.1927,-7.192,-7.1913,-7.1912,-7.1911,-7.191,0,-7.114,-7.1175,-7.1282,-7.1351,-7.1371,-7.1437,-7.1495,-7.1554,-7.1583,-7.1667,-7.1688,-7.1733,-7.1812,-7.1843,-7.1938,-7.1951,-7.206,-7.2058,-7.204,-7.2041,-7.2101,-7.2095,-7.2288,-7.2315,-7.216,-7.2162,-7.2163,0,-7.1217,-7.1282,-7.1359,-7.1405,-7.1443,-7.1516,-7.1564,-7.1591,-7.1641,-7.1717,-7.1766,-7.1845,-7.191,-7.2035,-7.2076,-7.2149,-7.2149,-7.2211,-7.2159,-7.2154,-7.215,-7.2146,-7.2153,-7.2221,-7.2222,-7.2223,-7.2224,0,-7.1351,-7.1366,-7.1436,-7.1513,-7.157,-7.1631,-7.169,-7.1727,-7.1764,-7.1819,-7.1901,-7.1952,-7.2051,-7.2129,-7.2205,-7.2241,-7.2239,-7.2241,-7.2259,-7.2255,-7.2242,-7.2251,-7.2066,-7.2236,-7.2235,-7.2234,-7.2233,-7.2233,-7.1443,-7.1501,-7.1565,-7.1643,-7.1692,-7.1748,-7.1807,-7.1844,-7.1914,-7.1998,-7.2009,-7.2097,-7.2158,-7.226,-7.23,-7.2368,-7.2351,-7.2377,-7.2384,-7.239,-7.2395,-7.2232,-7.2382,-7.2381,-7.2381,-7.2381,-7.2381,0,-7.1578,-7.162,-7.1691,-7.1776,-7.1837,-7.1833,-7.1899,-7.195,-7.2028,-7.2086,-7.215,-7.2245,-7.2322,-7.237,-7.2447,-7.2493,-7.2494,-7.2512,-7.2509,-7.2517,-7.2405,-7.2382,-7.251,-7.251,-7.251,-7.251,-7.251,-7.251,-7.1655,-7.1754,-7.1777,-7.19,-7.1941,-7.2029,-7.2067,-7.2119,-7.2165,-7.2272,-7.2336,-7.2368,-7.2422,-7.2504,-7.2574,-7.2586,-7.2614,-7.2634,-7.2644,-7.2538,-7.2525,-7.2512,-7.2491,-7.264,-7.264,-7.2751,-7.2752,-7.2753]}]]